CW0566 Weather Reports


Display with metric or nautical units.
time (UTC)temp
F
wind
direction
speed
MPH
gust
MPH
rain 1hr
in
rain 24hr
in
rain mn
in
humidity
%
barometer
mb
20260904171016 86 23 2.0 8.0 0.00 0.26 0.26 71 1012.5
20260904170016 86 270 3.0 8.0 0.00 0.26 0.26 70 1012.5
20260904165036 86 315 3.0 8.0 0.00 0.26 0.26 71 1012.4
20260904164016 86 315 2.0 5.0 0.00 0.26 0.26 68 1012.5
20260904163016 86 270 3.0 9.0 0.00 0.26 0.26 71 1012.5
20260904162016 85 45 3.0 8.0 0.00 0.26 0.26 74 1012.4
20260904161016 85 23 2.0 6.0 0.00 0.26 0.26 74 1012.5
20260904160016 85 0 2.0 6.0 0.00 0.26 0.26 71 1012.7
20260904155016 85 45 2.0 5.0 0.00 0.26 0.26 74 1012.8
20260904154016 84 315 2.0 5.0 0.00 0.26 0.26 75 1013.0
20260904153016 84 45 3.0 13.0 0.00 0.26 0.26 71 1012.9
20260904152016 84 315 3.0 7.0 0.00 0.26 0.26 73 1012.8
20260904151016 84 23 2.0 8.0 0.00 0.26 0.26 72 1012.8
20260904150016 83 68 3.0 10.0 0.00 0.26 0.26 76 1012.8
20260904145016 83 45 4.0 9.0 0.00 0.26 0.26 75 1012.8
20260904144016 83 45 3.0 9.0 0.00 0.26 0.26 76 1012.8
20260904143016 82 23 2.0 5.0 0.00 0.26 0.26 78 1012.7
20260904142016 82 68 2.0 5.0 0.00 0.26 0.26 79 1012.7
20260904141015 82 23 2.0 8.0 0.00 0.26 0.26 78 1012.6
20260904140015 81 315 2.0 7.0 0.00 0.26 0.26 79 1012.6
20260904135016 81 45 2.0 4.0 0.00 0.26 0.26 81 1012.6
20260904134015 81 315 2.0 7.0 0.00 0.26 0.26 81 1012.6
20260904133016 80 23 2.0 4.0 0.00 0.26 0.26 84 1012.6
20260904132015 79 23 2.0 8.0 0.00 0.26 0.26 83 1012.6
20260904131036 79 293 2.0 5.0 0.00 0.26 0.26 84 1012.7
20260904130035 79 293 2.0 5.0 0.00 0.26 0.26 84 1012.7
20260904125016 78 338 1.0 5.0 0.00 0.26 0.26 86 1012.8
20260904124016 78 23 2.0 4.0 0.00 0.26 0.26 85 1012.8
20260904123015 77 270 2.0 5.0 0.00 0.26 0.26 86 1012.8
20260904122015 77 293 2.0 4.0 0.00 0.26 0.26 87 1012.7
20260904121015 76 293 2.0 5.0 0.00 0.26 0.26 87 1012.5
20260904120015 76 293 3.0 8.0 0.00 0.26 0.26 89 1012.5
20260904115015 75 293 3.0 6.0 0.00 0.27 0.26 91 1012.4
20260904114037 74 315 2.0 5.0 0.00 0.27 0.26 93 1012.5
20260904113017 73 270 2.0 4.0 0.00 0.27 0.26 94 1012.4
20260904112017 73 293 2.0 3.0 0.00 0.27 0.26 95 1012.2
20260904111017 73 293 1.0 4.0 0.00 0.27 0.26 95 1012.1
20260904110018 73 0.0 1.0 0.00 0.27 0.26 95 1011.9
20260904105017 73 293 1.0 3.0 0.00 0.27 0.26 95 1011.8
20260904104038 73 315 1.0 4.0 0.00 0.27 0.26 95 1011.8
20260904103017 73 0.0 3.0 0.00 0.27 0.26 95 1011.5
20260904102015 73 315 1.0 3.0 0.00 0.27 0.26 95 1011.4
20260904101017 74 315 2.0 4.0 0.00 0.27 0.26 95 1011.5
20260904100017 74 293 3.0 8.0 0.00 0.27 0.26 96 1011.4
20260904095018 74 293 1.0 5.0 0.00 0.27 0.26 96 1011.3
20260904094017 74 293 2.0 4.0 0.00 0.27 0.26 96 1011.4
20260904093017 74 293 2.0 5.0 0.00 0.27 0.26 96 1011.4
20260904092017 74 315 3.0 8.0 0.00 0.28 0.26 96 1011.6
20260904091017 74 315 2.0 5.0 0.00 0.29 0.26 97 1011.9
20260904090017 74 293 2.0 5.0 0.00 0.32 0.26 97 1012.0
20260904085017 75 315 4.0 7.0 0.00 0.32 0.26 97 1012.1
20260904084057 75 293 4.0 12.0 0.00 0.32 0.26 97 1012.1
20260904083017 74 293 4.0 13.0 0.00 0.32 0.26 97 1012.0
20260904082017 75 293 4.0 10.0 0.00 0.32 0.26 98 1012.0
20260904081017 75 315 4.0 10.0 0.00 0.32 0.26 98 1012.1
20260904080017 75 315 3.0 6.0 0.00 0.32 0.26 98 1012.1
20260904075057 75 293 2.0 7.0 0.00 0.32 0.26 98 1012.1
20260904074017 74 293 3.0 7.0 0.00 0.32 0.26 98 1011.9
20260904073017 74 293 2.0 4.0 0.00 0.33 0.26 97 1011.9
20260904072017 74 135 1.0 3.0 0.00 0.33 0.26 97 1011.8
20260904071017 74 0.0 2.0 0.00 0.33 0.26 97 1011.6
20260904070017 74 0.0 2.0 0.00 0.33 0.26 97 1011.3
20260904065017 74 0.0 1.0 0.00 0.33 0.26 97 1011.3
20260904064017 74 0.0 0.0 0.00 0.34 0.26 97 1011.3
20260904063016 74 0.0 0.0 0.00 0.36 0.26 97 1011.3
20260904062017 74 0.0 0.0 0.00 0.42 0.26 97 1011.4
20260904061017 74 0.0 0.0 0.00 0.47 0.26 96 1011.3
20260904060037 74 0.0 1.0 0.00 0.81 0.26 96 1011.2
20260904055017 74 0.0 0.0 0.00 0.88 0.26 96 1011.4
20260904054017 74 0.0 0.0 0.01 0.88 0.26 96 1011.9
20260904053017 74 0.0 0.0 0.01 0.88 0.26 96 1012.0
20260904052038 74 0.0 1.0 0.03 0.88 0.26 95 1011.6
20260904051017 74 0.0 0.0 0.18 0.88 0.26 95 1011.8
20260904050016 74 0.0 2.0 0.26 0.88 0.26 95 1011.9
20260904045016 75 135 1.0 2.0 0.26 0.88 0.26 95 1011.9
20260904044017 75 135 2.0 4.0 0.25 0.87 0.25 94 1011.9
20260904043016 75 0 1.0 4.0 0.25 0.87 0.25 94 1012.6
20260904042036 76 0 3.0 8.0 0.23 0.85 0.23 92 1013.3
20260904041016 76 315 4.0 11.0 0.08 0.70 0.08 91 1013.4
20260904040016 76 0.0 2.0 0.00 0.62 0.62 90 1012.4
20260904035017 76 0.0 1.0 0.00 0.62 0.62 90 1012.4
20260904034017 76 0.0 3.0 0.00 0.62 0.62 90 1012.6
20260904033017 76 0.0 1.0 0.00 0.62 0.62 90 1012.6
20260904032017 76 0.0 1.0 0.00 0.62 0.62 90 1012.9
20260904031017 77 0.0 1.0 0.00 0.62 0.62 90 1012.9
20260904030018 77 0.0 1.0 0.00 0.62 0.62 90 1012.9
20260904025037 77 0.0 1.0 0.00 0.62 0.62 89 1013.0
20260904024017 78 0.0 0.0 0.00 0.62 0.62 89 1013.0
20260904023017 78 0.0 0.0 0.00 0.62 0.62 88 1012.8
20260904022057 78 0.0 0.0 0.00 0.62 0.62 87 1013.0
20260904021017 78 0.0 1.0 0.00 0.62 0.62 87 1012.9
20260904020017 78 248 1.0 3.0 0.00 0.62 0.62 87 1013.0
20260904015017 78 293 1.0 3.0 0.00 0.62 0.62 87 1013.2
20260904014017 78 315 1.0 4.0 0.00 0.62 0.62 87 1013.3
20260904013017 77 315 3.0 8.0 0.00 0.62 0.62 88 1013.5
20260904012017 77 293 2.0 5.0 0.00 0.62 0.62 89 1013.6
20260904011038 77 315 1.0 2.0 0.00 0.62 0.62 90 1013.7
20260904010017 77 315 1.0 4.0 0.00 0.62 0.62 90 1013.9
20260904005017 78 0.0 0.0 0.00 0.62 0.62 89 1013.6
20260904004017 78 0.0 0.0 0.00 0.62 0.62 88 1013.4
20260904003017 78 0.0 0.0 0.00 0.62 0.62 88 1013.4
20260904002037 79 0.0 0.0 0.00 0.62 0.62 87 1013.3
20260904001037 79 0.0 1.0 0.00 0.62 0.62 86 1013.2
20260904000057 80 0.0 0.0 0.00 0.62 0.62 85 1013.3
20260903235017 80 0.0 0.0 0.00 0.62 0.62 85 1013.2
20260903234017 80 315 1.0 3.0 0.00 0.62 0.62 84 1013.1
20260903233017 81 293 1.0 2.0 0.00 0.62 0.62 83 1013.1
20260903232056 81 293 1.0 4.0 0.00 0.62 0.62 83 1013.0
20260903231016 82 293 1.0 4.0 0.00 0.62 0.62 82 1012.9
20260903230057 82 270 3.0 8.0 0.00 0.62 0.62 81 1013.0
20260903225017 83 293 4.0 9.0 0.00 0.62 0.62 80 1012.9
20260903224017 83 270 2.0 5.0 0.00 0.62 0.62 82 1012.8
20260903223017 84 293 3.0 8.0 0.00 0.62 0.62 81 1012.9
20260903222037 84 315 3.0 10.0 0.00 0.62 0.62 81 1013.0
20260903221016 84 293 3.0 11.0 0.00 0.62 0.62 81 1012.9
20260903220017 84 293 5.0 8.0 0.00 0.62 0.62 80 1012.8
20260903215056 85 270 3.0 8.0 0.00 0.62 0.62 79 1012.7
20260903214017 85 293 4.0 9.0 0.00 0.62 0.62 79 1012.7
20260903213016 85 270 4.0 11.0 0.00 0.62 0.62 79 1012.9
20260903212016 85 270 4.0 10.0 0.00 0.62 0.62 79 1012.8
20260903211036 86 270 4.0 9.0 0.00 0.62 0.62 78 1012.8
20260903210017 86 293 4.0 10.0 0.00 0.62 0.62 78 1013.0
20260903205016 86 293 4.0 12.0 0.00 0.62 0.62 78 1012.9
20260903204016 86 315 5.0 9.0 0.00 0.62 0.62 79 1013.0
20260903203016 86 248 4.0 9.0 0.00 0.62 0.62 79 1013.0
20260903202016 86 315 6.0 12.0 0.00 0.62 0.62 79 1013.0
20260903201016 86 270 3.0 9.0 0.00 0.62 0.62 79 1013.1
20260903200016 86 293 5.0 11.0 0.00 0.62 0.62 79 1013.3
20260903195017 85 270 4.0 10.0 0.00 0.62 0.62 79 1013.4
20260903194037 85 270 4.0 10.0 0.00 0.62 0.62 80 1013.5
20260903193016 85 315 6.0 14.0 0.00 0.62 0.62 80 1013.7
20260903192016 85 270 4.0 11.0 0.00 0.62 0.62 81 1013.9
20260903191017 85 270 4.0 11.0 0.00 0.62 0.62 80 1014.0
20260903190036 85 293 4.0 11.0 0.00 0.63 0.62 79 1014.2
20260903185016 85 270 6.0 12.0 0.00 0.63 0.62 80 1014.2
20260903184016 85 293 4.0 9.0 0.00 0.63 0.62 81 1014.1
20260903183016 84 293 4.0 9.0 0.00 0.64 0.62 81 1014.3
20260903182037 85 270 4.0 8.0 0.00 0.66 0.62 82 1014.2
20260903181016 84 270 4.0 9.0 0.00 0.68 0.62 82 1014.2
20260903180016 84 293 3.0 8.0 0.00 0.68 0.62 83 1014.2
20260903175016 84 293 5.0 12.0 0.00 0.68 0.62 84 1014.2
20260903174016 83 315 3.0 8.0 0.00 0.68 0.62 85 1014.2
20260903173056 83 293 6.0 15.0 0.00 0.68 0.62 84 1014.5
20260903172016 83 315 5.0 12.0 0.00 0.68 0.62 87 1014.9